User: anonymous   Login
Location: Fort Wayne
(41.1310°N, 85.1290°W)
Time: 06:13:36
(UTC-05:00)
Language:

COSMOS 2428 - Orbit

View from above orbital plane
View from above orbital plane
View from above satellite
View from above satellite

Ground track
Ground track

The orbit data is extracted from the following two-line orbital elements,

1 31792U 07029A   14330.22965351  .00000407  00000-0  24606-3 0  2124
2 31792 070.9766 210.0824 0012392 245.8789 252.4122 14.12481800382196
Epoch (UTC): 26 November 2014 05:30:42
Eccentricity: 0.0012392
inclination: 70.9766°
perigee height: 842 km
apogee height: 860 km
right ascension of ascending node: 210.0824°
argument of perigee: 245.8789°
revolutions per day: 14.12481800
mean anomaly at epoch: 252.4122°
orbit number at epoch: 38219

The dashed part of the orbit path shows where the satellite is in the earth's shadow,  

DLR